When you browse on this site, cookies collect data to enhance your experience and personalize the content and advertising you see.
Visit our Privacy Policy to learn more. By continuing to use the site, you agree to this use of cookies and data.
  • In Sweden
  • List of Countries
  • For 7 days
  • Water Temperature
  • Satellite Maps
  • Weather Map
  • Weather Widgets
  • user-avatar
    Login

    Hourly Weather Gaski

    Today, 20 February, Wednesday

    Time Temperature Precipitation Wind Pressure Humidity
    00:00 +3°C° 0 mm 5 mps 741 mmHg 89%
    01:00 +3°C° 0 mm 4 mps 742 mmHg 88%
    02:00 +1°C° 0 mm 4 mps 742 mmHg 89%
    03:00 +1°C° 0 mm 5 mps 742 mmHg 89%
    04:00 +1°C° 0 mm 5 mps 742 mmHg 89%
    05:00 +1°C° 0 mm 5 mps 742 mmHg 89%
    06:00 +1°C° 0 mm 6 mps 742 mmHg 89%
    07:00 +1°C° 0 mm 6 mps 743 mmHg 88%
    08:00 +2°C° 0.1 mm 6 mps 743 mmHg 86%
    09:00 +2°C° 0.1 mm 6 mps 743 mmHg 83%
    10:00 +2°C° 0.1 mm 6 mps 744 mmHg 81%
    11:00 +2°C° 0.1 mm 6 mps 744 mmHg 80%
    12:00 +2°C° 0.1 mm 6 mps 744 mmHg 78%
    13:00 +2°C° 0.1 mm 6 mps 744 mmHg 76%
    14:00 +2°C° 0.1 mm 6 mps 745 mmHg 76%
    15:00 +2°C° 0.1 mm 6 mps 745 mmHg 76%
    16:00 +3°C° 0.1 mm 6 mps 745 mmHg 76%
    17:00 +2°C° 0.1 mm 6 mps 745 mmHg 77%
    18:00 +2°C° 0.1 mm 5 mps 746 mmHg 79%
    19:00 +2°C° 0.1 mm 5 mps 746 mmHg 80%
    20:00 +3°C° 0 mm 4 mps 746 mmHg 81%
    21:00 +3°C° 0 mm 4 mps 746 mmHg 82%
    22:00 +2°C° 0 mm 3 mps 747 mmHg 83%
    23:00 +2°C° 0 mm 3 mps 747 mmHg 85%

    Tomorrow, 21 February, Thursday

    Time Temperature Precipitation Wind Pressure Humidity
    00:00 +2°C° 0 mm 3 mps 747 mmHg 87%
    01:00 +2°C° 0 mm 3 mps 747 mmHg 88%
    02:00 +2°C° 0 mm 3 mps 747 mmHg 88%
    03:00 +2°C° 0 mm 3 mps 747 mmHg 87%
    04:00 +3°C° 0 mm 4 mps 747 mmHg 87%
    05:00 +3°C° 0 mm 4 mps 747 mmHg 89%
    06:00 +3°C° 0 mm 4 mps 747 mmHg 91%
    07:00 +1°C° 0 mm 4 mps 747 mmHg 93%
    08:00 +3°C° 0 mm 4 mps 747 mmHg 88%
    09:00 +2°C° 0 mm 5 mps 747 mmHg 83%
    10:00 +3°C° 0 mm 5 mps 747 mmHg 78%
    11:00 +3°C° 0.2 mm 6 mps 747 mmHg 79%
    12:00 +3°C° 0.2 mm 6 mps 746 mmHg 79%
    13:00 +3°C° 0.2 mm 6 mps 746 mmHg 79%
    14:00 +3°C° 0.8 mm 6 mps 746 mmHg 81%
    15:00 +3°C° 0.8 mm 7 mps 745 mmHg 82%
    16:00 +3°C° 0.8 mm 7 mps 745 mmHg 83%
    17:00 +3°C° 0.6 mm 7 mps 745 mmHg 85%
    18:00 +3°C° 0.6 mm 7 mps 745 mmHg 86%
    19:00 +3°C° 0.6 mm 6 mps 744 mmHg 88%
    20:00 +3°C° 0.5 mm 6 mps 744 mmHg 89%
    21:00 +3°C° 0.5 mm 6 mps 744 mmHg 91%
    22:00 +3°C° 0.5 mm 6 mps 744 mmHg 92%
    23:00 +3°C° 0.7 mm 6 mps 744 mmHg 93%

    Day after tomorrow, 22 February, Friday

    Time Temperature Precipitation Wind Pressure Humidity
    00:00 +4°C° 0.7 mm 6 mps 743 mmHg 93%
    01:00 +4°C° 0.7 mm 6 mps 743 mmHg 93%
    02:00 +3°C° 0.6 mm 6 mps 744 mmHg 93%
    03:00 +3°C° 0.6 mm 6 mps 744 mmHg 93%
    04:00 +3°C° 0.6 mm 6 mps 744 mmHg 93%
    05:00 +2°C° 0.3 mm 6 mps 745 mmHg 90%
    06:00 -1°C° 0.3 mm 7 mps 746 mmHg 86%
    07:00 -2°C° 0.3 mm 8 mps 747 mmHg 83%
    08:00 -3°C° 0 mm 7 mps 749 mmHg 77%
    09:00 -3°C° 0 mm 7 mps 750 mmHg 70%
    10:00 -3°C° 0 mm 7 mps 751 mmHg 64%
    11:00 -3°C° 0 mm 7 mps 752 mmHg 60%
    12:00 -3°C° 0 mm 6 mps 753 mmHg 56%
    13:00 -2°C° 0 mm 6 mps 754 mmHg 52%
    14:00 -3°C° 0 mm 6 mps 755 mmHg 52%
    15:00 -3°C° 0 mm 6 mps 755 mmHg 52%
    16:00 -4°C° 0 mm 6 mps 755 mmHg 52%
    17:00 -5°C° 0 mm 5 mps 756 mmHg 54%
    18:00 -5°C° 0 mm 5 mps 757 mmHg 56%
    19:00 -6°C° 0 mm 5 mps 757 mmHg 58%
    20:00 -6°C° 0 mm 5 mps 758 mmHg 56%
    21:00 -5°C° 0 mm 4 mps 758 mmHg 53%
    22:00 -7°C° 0 mm 4 mps 759 mmHg 51%
    23:00 -7°C° 0 mm 4 mps 759 mmHg 48%

    23 February, Saturday

    Time Temperature Precipitation Wind Pressure Humidity
    00:00 -7°C° 0 mm 4 mps 759 mmHg 46%
    01:00 -7°C° 0 mm 4 mps 760 mmHg 43%
    02:00 -7°C° 0 mm 4 mps 759 mmHg 42%
    03:00 -7°C° 0 mm 4 mps 759 mmHg 40%
    04:00 -6°C° 0 mm 3 mps 759 mmHg 39%
    05:00 -7°C° 0 mm 3 mps 760 mmHg 40%
    06:00 -7°C° 0 mm 3 mps 760 mmHg 40%
    07:00 -7°C° 0 mm 3 mps 760 mmHg 41%
    08:00 -6°C° 0 mm 3 mps 761 mmHg 39%
    09:00 -6°C° 0 mm 3 mps 761 mmHg 37%
    10:00 -5°C° 0 mm 3 mps 761 mmHg 36%
    11:00 -4°C° 0 mm 3 mps 761 mmHg 33%
    12:00 -3°C° 0 mm 2 mps 761 mmHg 30%
    13:00 -2°C° 0 mm 2 mps 760 mmHg 28%
    14:00 -2°C° 0 mm 2 mps 760 mmHg 28%
    15:00 -2°C° 0 mm 2 mps 760 mmHg 29%
    16:00 -2°C° 0 mm 3 mps 760 mmHg 30%
    17:00 -3°C° 0 mm 2 mps 760 mmHg 33%
    18:00 -3°C° 0 mm 2 mps 760 mmHg 37%
    19:00 -2°C° 0 mm 1 mps 760 mmHg 40%
    20:00 -2°C° 0 mm 1 mps 760 mmHg 40%
    21:00 -2°C° 0 mm 1 mps 760 mmHg 39%
    22:00 -1°C° 0 mm 1 mps 760 mmHg 38%
    23:00 -1°C° 0 mm 1 mps 760 mmHg 38%

    24 February, Sunday

    Time Temperature Precipitation Wind Pressure Humidity
    00:00 -1°C° 0 mm 1 mps 760 mmHg 37%
    01:00 -1°C° 0 mm 1 mps 759 mmHg 36%
    02:00 -1°C° 0 mm 1 mps 759 mmHg 36%
    03:00 -1°C° 0 mm 1 mps 759 mmHg 36%
    04:00 -1°C° 0 mm 1 mps 759 mmHg 37%
    05:00 -1°C° 0 mm 1 mps 759 mmHg 38%
    06:00 -3°C° 0 mm 2 mps 758 mmHg 39%
    07:00 -3°C° 0 mm 2 mps 758 mmHg 40%
    08:00 -2°C° 0 mm 2 mps 758 mmHg 36%
    09:00 -1°C° 0 mm 2 mps 758 mmHg 33%
    10:00 -1°C° 0 mm 2 mps 758 mmHg 30%
    11:00 0°C° 0 mm 3 mps 758 mmHg 30%
    12:00 +1°C° 0 mm 3 mps 758 mmHg 31%
    13:00 +2°C° 0 mm 3 mps 757 mmHg 32%
    14:00 +2°C° 0 mm 3 mps 757 mmHg 36%
    15:00 +2°C° 0 mm 2 mps 757 mmHg 39%
    16:00 +2°C° 0 mm 2 mps 757 mmHg 43%
    17:00 +1°C° 0 mm 2 mps 757 mmHg 47%
    18:00 -1°C° 0 mm 2 mps 757 mmHg 50%
    19:00 -1°C° 0 mm 2 mps 757 mmHg 54%
    20:00 -2°C° 0 mm 2 mps 757 mmHg 56%
    21:00 -2°C° 0 mm 2 mps 757 mmHg 58%
    22:00 -2°C° 0 mm 2 mps 757 mmHg 60%
    23:00 -2°C° 0 mm 2 mps 757 mmHg 62%

    25 February, Monday

    Time Temperature Precipitation Wind Pressure Humidity
    00:00 0°C° 0 mm 1 mps 757 mmHg 63%
    01:00 0°C° 0 mm 1 mps 757 mmHg 64%
    02:00 -2°C° 0 mm 2 mps 757 mmHg 64%
    03:00 -2°C° 0 mm 2 mps 757 mmHg 64%
    04:00 -2°C° 0 mm 2 mps 756 mmHg 63%
    05:00 -2°C° 0 mm 2 mps 756 mmHg 64%
    06:00 -2°C° 0 mm 2 mps 756 mmHg 64%
    07:00 -2°C° 0 mm 2 mps 756 mmHg 64%
    08:00 -1°C° 0 mm 3 mps 756 mmHg 62%
    09:00 0°C° 0 mm 3 mps 756 mmHg 61%
    10:00 +1°C° 0 mm 3 mps 756 mmHg 59%
    11:00 +1°C° 0 mm 4 mps 756 mmHg 60%
    12:00 +3°C° 0 mm 4 mps 755 mmHg 61%
    13:00 +4°C° 0 mm 4 mps 755 mmHg 62%
    14:00 +4°C° 0 mm 4 mps 755 mmHg 68%
    15:00 +4°C° 0 mm 4 mps 755 mmHg 75%
    16:00 +4°C° 0 mm 3 mps 755 mmHg 81%
    17:00 +3°C° 0 mm 3 mps 755 mmHg 81%
    18:00 +1°C° 0 mm 4 mps 755 mmHg 82%
    19:00 0°C° 0 mm 4 mps 756 mmHg 82%
    20:00 -1°C° 0 mm 4 mps 756 mmHg 84%
    21:00 -1°C° 0 mm 4 mps 756 mmHg 86%
    22:00 -1°C° 0 mm 4 mps 756 mmHg 88%
    23:00 -2°C° 0 mm 4 mps 756 mmHg 89%
    Show more